Date String (YYYY-MM-DD hh:mm:ss) UTC,Instrument flags,absolute air pressure of the measurement (hPa),sample flow rate (lpm),inlet stack bypass flow (lpm),air temperature of the measurement (°C),ambient temperature measured by the external sensor (°C),aerosol sample conditioner tube jacket temperature (°C),OPC LED temperature (°C),internal box temperature (°C),relative humidity of the measurement (%),span deviation,mass concentration of particles derived from Lorenz-Mie calculation of OPC scattering (μg/m³),mass concentration of particles derived from Lorenz-Mie calculation of OPC scattering (μg/m³),mass concentration of particles derived from Lorenz-Mie calculation of OPC scattering (μg/m³)
DateTimeUTC,F1_M11,P_M11,Q1_M11,Q2_M11,T1_M11,T2_M11,T3_M11,T4_M11,T5_M11,U1_M11,ZSPAN_M11,X0_M11,X2_M11,X1_M11
2023-07-18 19:00:00,SystemResetWarning,0832.4,5.00,000.00,028.4,025.3,000.0,036.6,029.8,22.5,0000.0,0013.01,0006.11,0005.33
2023-07-18 19:01:00,SystemResetWarning,0832.4,5.00,000.00,028.4,025.8,000.0,036.6,029.9,21.8,0000.0,0013.73,0006.10,0005.32
2023-07-18 19:02:00,SystemResetWarning,0832.5,5.00,000.00,028.4,026.2,000.0,036.7,030.0,21.4,0000.0,0013.84,0006.07,0005.31
2023-07-18 19:03:00,SystemResetWarning,0832.5,5.00,000.00,028.4,026.7,000.0,036.7,030.1,21.6,0000.0,0014.13,0006.03,0005.30
2023-07-18 19:04:00,SystemResetWarning,0832.5,4.99,000.00,028.5,026.7,000.0,036.7,030.2,21.3,0000.0,0013.79,0006.00,0005.31
2023-07-18 19:05:00,SystemResetWarning,0832.5,4.98,000.00,028.5,025.4,000.0,036.6,030.0,22.5,0000.0,0013.74,0006.04,0005.31
2023-07-18 19:06:00,SystemResetWarning,0832.4,5.02,000.00,028.4,024.7,000.0,036.5,029.9,22.8,0000.0,0013.97,0006.04,0005.31
2023-07-18 19:07:00,SystemResetWarning,0832.5,5.01,000.00,028.4,025.2,000.0,036.5,029.8,22.8,0000.0,0013.72,0006.01,0005.31
2023-07-18 19:08:00,SystemResetWarning,0832.4,4.99,000.00,028.3,025.6,000.0,036.6,029.8,21.9,0000.0,0013.82,0006.04,0005.31
2023-07-18 19:09:00,SystemResetWarning,0832.5,5.00,000.00,028.3,026.0,000.0,036.6,029.9,22.8,0000.0,0013.97,0006.11,0005.32
2023-07-18 19:10:00,SystemResetWarning,0832.5,5.01,000.00,028.4,026.5,000.0,036.7,030.1,22.4,0000.0,0015.05,0006.18,0005.32
2023-07-18 19:11:00,SystemResetWarning,0832.5,4.99,000.00,028.4,026.8,000.0,036.7,030.2,21.9,0000.0,0015.16,0006.16,0005.32
2023-07-18 19:12:00,SystemResetWarning,0832.5,4.99,000.00,028.5,026.1,000.0,036.6,030.1,22.7,0000.0,0014.57,0006.20,0005.33
2023-07-18 19:13:00,SystemResetWarning,0832.5,5.01,000.00,028.4,024.8,000.0,036.5,029.9,23.2,0000.0,0013.87,0006.20,0005.33
2023-07-18 19:14:00,SystemResetWarning,0832.5,5.01,000.00,028.4,025.0,000.0,036.5,029.8,24.2,0000.0,0013.69,0006.23,0005.32
2023-07-18 19:15:00,SystemResetWarning,0832.5,5.01,000.00,028.3,025.4,000.0,036.5,029.8,22.7,0000.0,0014.39,0006.23,0005.32
2023-07-18 19:16:00,SystemResetWarning,0832.5,4.99,000.00,028.3,025.8,000.0,036.6,029.8,22.7,0000.0,0014.51,0006.18,0005.30
2023-07-18 19:17:00,SystemResetWarning,0832.5,5.01,000.00,028.4,026.3,000.0,036.6,030.0,22.2,0000.0,0014.91,0006.19,0005.31
2023-07-18 19:18:00,SystemResetWarning,0832.5,5.00,000.00,028.4,026.7,000.0,036.7,030.1,21.6,0000.0,0015.72,0006.16,0005.30
2023-07-18 19:19:00,SystemResetWarning,0832.5,4.99,000.00,028.4,026.6,000.0,036.6,030.1,22.0,0000.0,0015.58,0006.15,0005.30
2023-07-18 19:20:00,SystemResetWarning,0832.5,4.98,000.00,028.4,025.3,000.0,036.6,029.9,22.8,0000.0,0015.64,0006.12,0005.29
2023-07-18 19:21:00,SystemResetWarning,0832.5,5.02,000.00,028.3,024.8,000.0,036.5,029.8,21.4,0000.0,0015.06,0006.06,0005.27
2023-07-18 19:22:00,SystemResetWarning,0832.5,4.99,000.00,028.3,025.2,000.0,036.5,029.8,22.1,0000.0,0015.61,0006.08,0005.26
2023-07-18 19:23:00,SystemResetWarning,0832.5,5.00,000.00,028.3,025.6,000.0,036.6,029.8,22.8,0000.0,0015.25,0006.04,0005.26
2023-07-18 19:24:00,SystemResetWarning,0832.5,5.00,000.00,028.3,026.1,000.0,036.6,029.9,22.3,0000.0,0015.48,0006.02,0005.26
2023-07-18 19:25:00,SystemResetWarning,0832.5,5.01,000.00,028.4,026.5,000.0,036.7,030.1,22.1,0000.0,0014.90,0006.00,0005.27
2023-07-18 19:26:00,SystemResetWarning,0832.5,5.00,000.00,028.4,026.8,000.0,036.7,030.2,22.1,0000.0,0014.37,0006.03,0005.27
2023-07-18 19:27:00,SystemResetWarning,0832.5,4.98,000.00,028.4,026.0,000.0,036.6,030.1,22.5,0000.0,0013.89,0006.03,0005.28
2023-07-18 19:28:00,SystemResetWarning,0832.5,5.00,000.00,028.4,024.8,000.0,036.5,029.9,21.6,0000.0,0013.31,0006.07,0005.28
2023-07-18 19:29:00,SystemResetWarning,0832.5,5.02,000.00,028.3,025.0,000.0,036.5,029.9,22.0,0000.0,0012.95,0006.13,0005.28
2023-07-18 19:30:00,SystemResetWarning,0832.5,4.99,000.00,028.3,025.4,000.0,036.5,029.8,22.1,0000.0,0012.73,0006.11,0005.28
2023-07-18 19:31:00,SystemResetWarning,0832.5,4.99,000.00,028.3,025.9,000.0,036.6,029.9,22.1,0000.0,0012.29,0006.12,0005.30
2023-07-18 19:32:00,SystemResetWarning,0832.5,5.00,000.00,028.3,026.3,000.0,036.6,030.0,22.6,0000.0,0012.34,0006.13,0005.32
2023-07-18 19:33:00,SystemResetWarning,0832.6,5.01,000.00,028.4,026.8,000.0,036.7,030.1,23.0,0000.0,0012.15,0006.13,0005.33
2023-07-18 19:34:00,SystemResetWarning,0832.5,5.01,000.00,028.5,027.1,000.0,036.7,030.2,22.8,0000.0,0013.46,0006.15,0005.33
2023-07-18 19:35:00,SystemResetWarning,0832.5,4.98,000.00,028.5,026.1,000.0,036.6,030.1,22.2,0000.0,0013.58,0006.17,0005.34
2023-07-18 19:36:00,SystemResetWarning,0832.5,5.00,000.00,028.4,024.9,000.0,036.5,029.9,21.5,0000.0,0014.02,0006.19,0005.35
2023-07-18 19:37:00,SystemResetWarning,0832.5,5.01,000.00,028.4,025.1,000.0,036.5,029.9,21.7,0000.0,0014.28,0006.19,0005.35
2023-07-18 19:38:00,SystemResetWarning,0832.4,5.00,000.00,028.3,025.4,000.0,036.5,029.8,22.4,0000.0,0014.44,0006.23,0005.35
2023-07-18 19:39:00,SystemResetWarning,0832.4,4.99,000.00,028.3,025.9,000.0,036.6,029.9,23.0,0000.0,0014.95,0006.19,0005.34
2023-07-18 19:40:00,SystemResetWarning,0832.4,4.99,000.00,028.4,026.4,000.0,036.6,030.0,22.1,0000.0,0014.21,0006.15,0005.34
2023-07-18 19:41:00,SystemResetWarning,0832.4,5.00,000.00,028.4,026.8,000.0,036.7,030.2,22.3,0000.0,0015.06,0006.17,0005.33
2023-07-18 19:42:00,SystemResetWarning,0832.4,5.01,000.00,028.5,027.1,000.0,036.7,030.2,22.7,0000.0,0015.53,0006.16,0005.32
2023-07-18 19:43:00,SystemResetWarning,0832.3,4.98,000.00,028.5,026.1,000.0,036.6,030.1,23.1,0000.0,0015.30,0006.19,0005.31
2023-07-18 19:44:00,SystemResetWarning,0832.3,4.99,000.00,028.4,024.9,000.0,036.5,029.9,22.3,0000.0,0015.64,0006.17,0005.29
2023-07-18 19:45:00,SystemResetWarning,0832.3,5.01,000.00,028.4,025.1,000.0,036.5,029.9,22.7,0000.0,0014.87,0006.16,0005.30
2023-07-18 19:46:00,SystemResetWarning,0832.3,5.00,000.00,028.4,025.5,000.0,036.5,029.8,23.7,0000.0,0014.69,0006.16,0005.31
2023-07-18 19:47:00,SystemResetWarning,0832.3,5.00,000.00,028.4,025.9,000.0,036.6,029.9,22.8,0000.0,0015.32,0006.20,0005.31
2023-07-18 19:48:00,SystemResetWarning,0832.4,5.00,000.00,028.4,026.3,000.0,036.7,030.0,22.3,0000.0,0015.90,0006.19,0005.32
2023-07-18 19:49:00,SystemResetWarning,0832.4,5.00,000.00,028.4,026.8,000.0,036.7,030.1,22.1,0000.0,0016.32,0006.17,0005.32
2023-07-18 19:50:00,SystemResetWarning,0832.4,5.00,000.00,028.5,026.6,000.0,036.7,030.2,21.6,0000.0,0015.91,0006.17,0005.33
2023-07-18 19:51:00,SystemResetWarning,0832.3,4.99,000.00,028.4,025.2,000.0,036.6,029.9,22.6,0000.0,0015.85,0006.18,0005.32
2023-07-18 19:52:00,SystemResetWarning,0832.3,5.01,000.00,028.4,024.8,000.0,036.5,029.8,22.6,0000.0,0015.29,0006.17,0005.33
2023-07-18 19:53:00,SystemResetWarning,0832.3,5.01,000.00,028.4,025.2,000.0,036.5,029.8,21.9,0000.0,0014.69,0006.15,0005.34
2023-07-18 19:54:00,SystemResetWarning,0832.3,5.00,000.00,028.3,025.6,000.0,036.6,029.8,22.5,0000.0,0014.69,0006.11,0005.35
2023-07-18 19:55:00,SystemResetWarning,0832.4,5.00,000.00,028.4,026.1,000.0,036.6,030.0,23.3,0000.0,0015.41,0006.14,0005.35
2023-07-18 19:56:00,SystemResetWarning,0832.4,5.00,000.00,028.4,026.5,000.0,036.6,030.1,24.3,0000.0,0015.43,0006.16,0005.36
2023-07-18 19:57:00,SystemResetWarning,0832.4,5.00,000.00,028.4,026.9,000.0,036.7,030.2,23.1,0000.0,0015.23,0006.15,0005.36
2023-07-18 19:58:00,SystemResetWarning,0832.4,5.00,000.00,028.5,026.7,000.0,036.7,030.2,23.1,0000.0,0014.49,0006.15,0005.35
2023-07-18 19:59:00,SystemResetWarning,0832.4,4.98,000.00,028.5,025.3,000.0,036.6,030.0,22.9,0000.0,0014.03,0006.10,0005.33
